Wind_Speed
30 29 29 30 30 31 33 35 36 38 39 41 43 45 47 48 50 51 52 54 55 57 59 61 64 64 64 65 67 68 69 71 72 73 74 75 76 76 77 77 77 77 77 77 76 76 76 76 75 74 73 72 71 71 71 71 73 76 78 79 81 83 84 84 83 83 83 83 85 88 91 95 98 100 100 101 99 93 87 82 77 73 71 68 64 60
29 29 30 30 31 32 34 35 37 39 41 43 45 47 48 50 52 53 54 55 57 58 61 63 66 66 66 67 69 70 71 73 74 74 75 76 77 78 78 78 78 78 78 77 77 76 76 76 75 74 73 71 71 70 70 71 74 76 78 79 82 84 85 84 83 82 82 83 84 87 90 93 96 98 98 99 98 93 87 81 75 71 68 66 63 59
29 30 30 31 32 33 35 37 38 40 42 44 46 48 50 51 53 55 56 57 58 59 62 64 66 68 68 69 71 72 73 73 74 75 76 77 78 78 78 78 79 78 78 78 77 77 76 76 75 74 73 71 70 70 70 72 75 77 78 80 83 85 85 84 83 82 81 82 83 85 89 93 96 97 97 97 96 92 87 81 75 69 66 64 62 58
30 30 31 32 33 35 36 38 40 42 44 46 48 49 51 52 54 56 58 59 60 61 62 63 66 70 70 70 72 73 73 74 75 76 77 78 79 79 79 79 79 79 78 78 78 77 77 76 75 74 72 70 70 70 71 73 75 77 79 81 83 85 86 84 83 81 80 81 82 84 88 92 96 97 97 97 94 90 87 82 75 69 65 63 61 58
31 31 32 33 35 36 38 40 42 44 46 47 49 51 52 54 55 57 59 62 63 63 64 63 64 70 72 71 73 74 74 75 76 77 78 78 79 79 79 79 79 79 78 79 78 78 77 76 75 73 71 70 69 70 71 74 76 77 79 82 84 86 86 84 82 81 80 80 82 84 87 91 96 98 99 98 94 90 85 81 75 69 64 61 59 58
32 32 33 35 36 38 40 42 44 45 47 49 51 52 54 56 57 59 60 62 64 64 65 65 65 68 72 73 73 75 75 76 77 77 78 79 79 79 79 79 79 79 79 79 79 78 77 76 75 72 70 69 69 70 72 74 76 78 80 83 85 86 86 84 82 80 79 80 81 84 87 90 95 99 100 99 96 91 86 80 75 70 64 60 58 56
33 34 35 36 38 40 42 44 46 47 49 50 52 54 55 57 58 60 61 62 64 65 66 68 67 68 72 74 74 76 76 77 77 78 78 79 79 79 79 79 80 80 79 79 79 78 78 76 74 71 68 68 69 70 73 75 77 79 81 84 86 87 86 84 82 80 80 81 82 84 87 90 95 99 101 101 97 93 88 82 76 70 64 60 56 55
34 35 37 38 39 41 43 45 47 49 51 52 53 55 56 58 59 60 62 63 65 67 67 69 70 69 72 74 75 77 78 78 78 78 78 78 78 79 79 80 80 80 80 80 80 79 77 75 72 69 67 67 69 71 73 75 77 80 83 85 87 88 86 84 82 81 81 82 83 85 87 90 95 99 101 102 99 94 89 83 77 71 65 60 57 54
35 37 38 40 41 43 45 47 49 51 52 53 54 55 57 58 60 61 62 64 66 68 69 71 72 72 73 75 76 77 78 78 78 79 78 78 78 79 80 81 81 81 81 81 80 78 76 73 69 66 65 67 69 71 73 76 79 81 83 86 88 88 86 84 83 83 83 84 85 86 88 91 95 99 102 102 100 95 90 85 79 72 67 62 58 55
37 38 40 41 43 45 47 48 50 51 53 54 55 56 57 59 60 62 64 65 67 70 71 72 75 74 74 76 77 77 77 77 77 78 78 78 79 81 81 81 81 81 82 81 80 77 73 69 65 64 65 67 70 72 74 77 80 82 85 87 89 88 87 85 84 84 84 85 86 88 89 92 95 99 102 103 101 96 90 86 80 75 69 64 61 57
38 39 41 43 44 46 47 49 51 52 53 55 56 57 59 60 61 63 65 66 68 71 73 74 76 77 76 75 76 76 76 76 76 77 78 79 81 82 82 82 82 82 82 80 77 74 69 65 63 63 66 68 71 72 75 78 81 83 86 88 89 88 87 86 86 85 85 86 88 89 91 93 95 98 102 104 102 97 91 87 82 77 72 67 63 60
38 40 41 43 45 46 48 49 51 53 54 56 57 58 60 61 63 64 65 66 68 71 74 76 77 78 77 74 74 75 75 75 76 77 79 81 83 84 83 83 82 81 79 77 74 70 65 62 62 64 67 69 71 73 76 79 82 84 86 88 89 89 88 87 87 87 87 88 90 91 92 93 94 97 101 104 103 99 93 88 84 79 74 69 65 62
39 41 42 44 45 47 49 50 52 54 55 57 58 60 61 62 63 64 65 66 68 71 74 76 76 77 77 74 74 74 75 76 77 79 81 82 83 84 84 83 80 78 75 74 70 66 62 61 62 65 68 70 72 75 78 80 83 85 87 89 90 90 89 88 89 89 89 90 92 93 93 93 94 96 100 103 104 101 95 90 85 81 76 72 68 64
40 42 44 45 46 48 50 52 53 55 56 58 60 62 63 63 63 64 66 67 68 69 72 74 75 76 75 74 74 75 76 78 79 81 83 83 84 85 84 81 77 75 73 70 66 61 60 61 63 66 68 71 74 76 79 82 84 86 88 90 91 91 90 89 90 91 91 92 94 95 94 94 95 96 99 102 105 103 97 92 87 83 78 74 70 66
41 43 45 46 48 50 51 53 55 56 58 60 62 63 64 65 67 68 68 69 68 67 69 72 74 77 76 75 76 77 78 80 81 82 83 84 84 83 80 77 75 73 70 65 60 58 59 62 65 67 70 73 76 78 81 83 85 87 89 91 92 92 91 91 92 93 93 94 95 96 96 95 96 96 98 101 105 104 100 94 89 85 80 75 71 67
42 44 47 49 50 52 53 55 57 58 60 62 64 65 65 67 69 70 70 71 69 66 67 70 73 78 79 77 78 79 79 81 82 82 83 82 81 78 76 75 73 70 65 60 57 57 60 63 66 69 72 75 78 80 82 85 87 89 90 92 92 93 93 93 94 95 96 96 96 97 97 97 97 97 98 100 104 105 102 96 91 86 82 78 73 69
43 45 49 51 52 54 55 57 59 60 62 63 65 67 68 69 70 71 70 71 71 69 67 69 72 80 83 78 79 80 79 81 82 80 80 78 76 74 73 73 70 65 59 56 56 58 60 64 67 70 74 77 80 82 84 86 88 90 92 93 94 94 95 95 96 97 98 98 99 99 100 99 99 98 98 99 103 105 104 98 92 88 84 80 76 72
45 47 51 53 54 55 57 59 61 63 64 65 67 69 70 70 70 71 71 71 73 72 70 70 73 81 85 79 78 80 78 78 78 76 76 75 73 72 70 69 65 60 56 56 58 59 62 65 68 72 76 79 82 83 85 87 89 91 93 95 96 96 97 98 98 99 100 100 101 102 102 102 101 100 99 99 101 104 105 100 94 89 86 82 78 74
47 48 52 56 57 57 59 61 63 65 66 67 69 71 72 72 71 71 71 73 76 76 74 72 72 82 87 80 77 77 74 74 74 73 74 73 71 69 66 65 61 57 57 58 60 62 64 67 71 75 78 81 83 85 87 89 91 93 95 96 97 99 100 101 101 102 102 103 103 104 104 104 103 101 100 99 100 103 105 103 96 90 87 83 80 76
49 50 52 57 59 60 61 64 65 66 68 69 72 73 74 74 73 73 73 76 79 80 80 74 69 80 87 79 76 75 70 72 72 71 72 71 69 66 62 61 59 58 60 61 63 65 67 70 74 76 80 83 85 87 89 91 93 95 97 98 99 101 102 103 104 105 105 105 105 106 106 105 104 102 101 99 99 101 104 104 99 92 87 84 80 76
51 52 54 58 61 62 63 66 67 68 69 71 73 75 76 76 76 76 75 77 81 82 83 75 67 75 83 77 75 74 71 72 73 70 69 68 65 61 58 59 60 61 62 64 66 69 71 74 76 78 82 84 87 89 91 93 95 97 99 100 102 103 104 105 106 107 108 108 108 108 108 107 106 104 102 100 99 100 103 105 102 94 88 84 80 77
53 54 56 59 62 63 65 67 68 69 70 72 73 76 78 78 79 79 76 78 80 80 82 75 66 71 78 76 76 75 72 73 73 68 66 64 60 57 57 60 63 64 65 67 70 73 76 78 79 81 84 86 89 91 93 95 97 98 100 102 104 105 106 107 108 109 110 111 111 111 110 109 107 105 103 101 100 99 101 104 104 97 89 85 81 77
55 56 57 59 62 65 67 68 69 70 71 72 75 78 80 81 82 81 79 77 77 77 79 74 66 67 74 77 77 75 72 72 71 67 63 60 58 57 58 62 65 66 68 70 74 77 80 82 83 84 86 89 91 93 95 97 99 100 102 104 105 107 108 109 109 110 112 113 113 113 112 111 109 106 104 102 100 99 99 102 104 100 92 85 81 77
56 57 59 60 62 65 68 70 70 70 72 74 77 81 82 83 83 81 79 77 76 76 76 75 69 66 72 78 77 74 71 70 69 66 62 59 59 59 60 64 67 70 72 74 77 80 83 85 87 88 89 92 94 96 98 99 101 102 104 105 107 108 109 110 111 112 113 114 114 115 114 112 110 108 105 103 100 98 98 100 103 102 94 87 82 77
57 59 61 61 61 63 67 70 71 72 73 76 79 82 84 84 83 80 78 77 76 75 74 76 71 65 70 77 75 72 69 66 66 65 63 63 63 63 63 66 70 74 76 78 80 82 85 88 90 91 93 94 97 98 100 101 102 104 105 106 108 110 111 112 112 113 114 115 116 116 115 114 112 109 106 103 100 98 97 98 101 102 97 89 82 77
58 60 63 63 63 64 66 69 70 71 73 76 80 83 84 83 80 78 77 76 76 73 72 75 72 64 68 74 71 69 67 63 63 65 66 68 69 67 67 69 74 78 80 81 83 85 88 90 92 94 95 97 99 100 102 103 104 105 106 108 109 111 112 113 114 115 115 116 117 117 116 115 113 110 107 103 100 98 96 96 98 100 98 91 84 78
59 61 65 66 66 68 70 71 71 71 73 76 80 82 82 79 76 75 75 74 74 72 69 71 71 65 65 67 63 62 61 60 62 65 68 71 72 72 72 74 78 81 83 85 86 88 90 92 94 96 98 99 101 102 104 105 106 107 108 109 110 112 113 114 115 116 116 117 118 118 117 116 114 111 108 104 100 98 96 95 96 98 98 92 85 79
60 62 65 66 68 71 73 74 74 73 73 75 79 80 78 76 73 72 73 72 72 72 68 67 68 65 61 59 57 58 59 60 63 67 70 72 74 76 76 78 81 84 85 87 89 90 92 94 96 98 100 101 102 104 105 107 107 108 109 111 112 113 114 115 117 117 118 118 119 118 118 116 114 111 108 104 101 98 95 94 94 96 96 93 86 80
62 62 65 66 67 72 76 75 74 73 72 74 77 77 74 72 71 70 70 72 72 70 65 62 61 62 60 57 58 61 63 63 65 68 72 75 77 79 80 81 84 86 88 90 92 94 95 97 98 100 101 103 104 106 107 108 109 110 111 113 114 114 115 117 118 119 119 119 120 119 118 117 114 111 108 105 101 98 95 94 93 94 95 92 86 81
63 62 64 64 65 71 76 74 72 71 70 72 75 75 72 70 70 69 70 70 68 63 60 58 57 59 61 62 62 64 66 67 69 72 76 79 80 82 83 85 87 89 91 93 95 96 97 98 99 101 103 106 107 108 109 110 111 113 114 115 116 117 117 118 119 120 121 121 120 120 119 116 114 111 108 105 101 98 95 93 92 92 92 91 86 81
64 62 63 62 60 65 71 70 68 68 68 70 71 71 71 70 69 69 67 66 62 57 56 58 58 58 62 65 66 67 69 71 72 75 79 81 83 85 87 88 91 93 95 96 97 98 99 100 102 104 106 108 110 111 112 113 114 115 116 117 118 119 119 119 120 120 121 121 121 120 119 116 114 110 107 105 102 99 96 93 91 91 90 89 85 80
63 61 60 57 53 57 63 64 64 66 67 69 68 67 67 66 64 63 61 61 60 57 58 60 61 62 64 65 67 69 72 75 77 80 83 85 85 88 91 92 94 96 97 98 100 101 103 104 106 107 109 111 112 113 114 115 117 118 119 119 120 121 121 121 121 121 121 122 121 120 118 116 113 110 107 104 101 99 96 93 90 89 88 86 84 79
59 56 55 54 52 54 59 61 61 63 66 67 65 62 60 58 57 57 59 61 62 61 62 63 64 65 67 68 70 71 74 78 81 85 89 90 89 90 92 95 97 98 99 101 103 105 106 108 109 110 112 113 114 116 117 118 119 120 121 121 121 122 122 122 122 121 121 121 120 119 117 115 112 109 107 104 101 98 96 92 89 87 86 83 81 78
55 55 55 57 56 56 58 59 59 62 64 60 56 53 53 53 54 56 60 65 65 64 66 67 68 70 72 74 75 75 77 80 84 88 93 95 95 95 94 96 99 101 103 105 106 108 109 111 112 113 115 116 117 119 120 120 121 122 123 123 123 123 123 122 122 122 121 120 119 118 115 113 111 108 106 103 101 98 95 92 88 86 83 80 78 76
56 57 58 58 56 54 54 55 54 56 58 54 50 51 53 54 56 58 62 69 70 69 70 71 73 75 76 78 80 80 81 82 85 91 96 97 98 99 100 100 102 104 106 108 110 111 113 114 115 116 118 119 120 121 122 122 122 123 124 124 123 123 123 123 122 121 120 119 117 116 114 112 109 107 105 102 100 97 93 90 87 84 80 77 74 73
56 56 54 52 50 47 46 47 47 49 52 53 52 54 56 57 60 60 64 71 75 75 75 75 77 79 80 81 83 84 84 83 85 91 97 99 100 103 105 106 107 108 110 112 113 114 116 117 118 119 120 122 123 124 123 123 123 124 124 124 124 123 123 123 121 120 119 117 115 113 112 110 107 105 103 101 98 95 92 89 85 81 78 74 71 70
49 48 46 44 43 42 42 44 47 50 54 55 55 57 59 61 63 63 64 70 76 78 79 79 79 81 82 84 85 87 88 87 87 90 97 100 103 106 108 110 111 112 114 115 116 117 118 120 121 122 123 124 125 125 125 124 124 124 124 124 123 123 123 121 119 118 117 115 113 111 109 107 105 103 101 98 96 92 89 86 82 78 74 70 67 66
42 41 42 42 43 44 45 47 49 52 55 57 58 60 62 63 66 67 67 71 76 80 81 81 82 84 85 87 89 91 93 92 91 92 97 101 104 107 110 111 113 115 116 118 119 120 121 123 123 124 125 126 127 127 126 124 124 123 124 123 122 121 121 119 116 115 114 112 110 108 106 104 102 99 97 95 92 89 85 82 79 75 71 67 64 63
40 42 44 46 47 49 50 52 53 55 58 60 62 63 65 67 69 71 71 72 77 81 83 85 86 88 90 92 94 96 99 100 98 98 101 104 106 109 112 114 116 117 119 121 123 124 124 125 125 125 126 126 127 126 125 124 123 122 121 120 118 117 117 114 111 111 109 107 106 104 102 99 97 95 92 90 87 84 81 78 75 71 67 63 60 59
43 45 47 49 52 53 55 57 59 61 64 66 67 68 69 70 72 74 74 75 78 82 86 89 91 93 95 97 99 102 105 108 108 108 109 110 112 114 116 119 120 122 123 124 125 125 125 125 125 125 125 125 125 124 123 122 120 118 117 115 113 113 111 107 105 106 104 101 100 98 96 94 91 89 87 84 82 80 76 74 71 67 63 60 58 56
45 48 50 53 55 57 59 60 62 64 67 69 70 71 72 74 76 78 80 82 84 86 89 92 96 98 100 102 104 107 109 112 115 115 116 118 119 120 121 123 124 125 126 126 125 125 124 123 123 124 123 123 123 121 120 118 116 114 113 111 109 109 105 100 100 101 99 96 94 92 90 88 86 84 82 79 77 75 72 69 67 63 60 57 55 53
48 50 53 55 57 59 61 63 63 65 68 71 72 75 77 79 81 83 85 88 91 93 94 97 100 104 106 107 108 111 113 116 118 120 121 123 124 125 126 127 127 126 126 125 125 124 123 122 122 122 122 121 120 119 117 115 113 111 109 107 107 105 100 96 96 98 96 93 91 89 87 85 82 80 78 75 73 71 68 65 63 60 57 54 52 51
51 53 55 57 59 61 64 66 67 68 72 75 76 79 82 84 86 88 90 93 96 100 101 103 105 109 111 113 114 115 118 120 122 123 125 126 127 128 129 129 128 127 126 125 124 123 122 121 120 119 119 118 117 115 114 112 110 108 106 105 105 102 98 94 94 95 94 92 89 86 84 82 79 76 74 72 69 66 64 61 60 58 54 51 50 49
55 57 59 61 63 65 67 70 72 74 77 80 82 84 87 90 93 96 97 99 101 104 107 109 110 113 116 119 120 121 123 125 126 127 127 128 129 129 129 129 128 127 126 124 123 121 119 118 116 115 114 113 112 110 109 108 107 106 104 104 103 100 97 94 92 91 91 89 86 83 81 79 76 73 71 68 66 63 59 57 56 55 52 49 47 47
60 61 64 66 68 70 72 75 77 79 82 86 88 90 93 95 99 101 103 105 107 110 113 115 117 118 121 123 125 126 126 128 129 130 129 129 129 129 129 128 127 125 124 122 120 118 115 113 112 111 110 109 107 106 105 104 103 101 100 99 98 96 93 90 87 87 88 86 83 79 77 76 73 70 68 66 63 59 56 53 52 51 50 47 45 45
65 66 68 69 71 74 77 80 82 84 87 90 93 95 98 100 103 106 108 110 113 115 117 120 122 123 124 126 128 129 130 131 131 131 130 129 128 127 126 125 123 121 120 118 116 114 112 110 108 107 106 105 103 101 99 98 97 95 94 93 91 89 86 83 81 81 82 82 79 76 74 72 70 67 65 63 60 56 53 50 48 48 47 45 43 43
68 70 71 73 76 78 80 83 85 87 91 94 96 98 101 104 107 110 112 114 116 118 120 122 124 126 128 130 131 132 132 132 131 130 128 126 125 124 123 121 119 117 115 114 112 110 108 106 104 103 101 99 97 95 93 92 91 90 89 88 86 84 81 78 76 75 76 77 75 72 71 69 67 64 63 60 57 54 51 48 46 45 45 43 42 41
72 74 76 78 80 82 84 86 87 89 94 98 101 102 104 106 108 111 114 117 119 121 123 124 126 129 130 132 132 133 132 130 129 127 125 123 122 121 120 118 115 112 110 109 108 106 105 102 100 98 96 94 91 89 88 87 86 86 86 85 84 81 78 76 74 73 73 72 71 69 67 66 64 63 60 58 55 52 49 46 44 43 42 41 41 41
77 79 81 82 83 86 88 89 91 92 94 99 103 105 107 109 111 113 116 119 122 123 125 125 127 128 130 132 132 132 130 128 126 125 123 121 119 117 115 113 110 108 106 105 103 102 101 99 97 95 93 92 90 89 87 86 84 83 83 82 81 79 77 74 73 72 72 70 68 65 64 62 62 61 58 55 53 50 48 45 43 42 41 40 39 40
82 83 85 85 86 88 91 93 95 95 96 99 103 107 110 113 116 118 120 122 123 125 126 127 127 128 129 130 130 129 127 125 123 121 119 116 114 112 111 108 106 104 103 102 100 99 98 97 96 95 94 92 90 90 89 87 84 81 81 80 79 77 75 73 72 72 72 70 66 63 61 59 60 59 56 53 51 49 47 45 43 41 40 39 39 39
85 87 88 89 91 92 95 97 100 102 104 106 109 113 116 119 121 122 123 125 126 127 128 129 130 129 128 127 125 124 122 119 117 115 113 111 109 108 107 105 104 102 101 100 99 98 97 96 95 95 93 91 89 88 88 86 83 80 79 78 77 75 73 71 70 70 71 69 65 62 59 57 57 56 53 51 49 48 46 44 42 41 40 39 38 38
Wind_Direction
278 279 282 285 289 292 294 294 295 297 299 300 301 302 303 304 305 305 306 308 309 310 310 310 310 311 312 312 312 313 314 314 314 314 315 315 316 316 317 317 317 317 318 318 318 318 318 319 319 320 320 320 320 320 320 320 321 322 324 325 327 327 327 326 325 325 325 325 325 324 324 323 323 324 326 328 327 326 326 325 323 320 316 313 310 306
278 279 282 285 288 291 293 295 297 299 301 302 303 304 304 305 305 306 307 308 309 309 309 309 310 310 311 312 312 313 313 314 314 314 315 316 316 317 317 317 317 318 318 317 318 318 319 319 320 320 320 320 320 320 320 320 322 323 325 327 327 327 327 326 326 326 326 326 326 326 326 326 326 326 329 331 330 328 328 327 326 323 319 316 313 308
279 281 284 287 290 293 295 297 299 301 302 303 303 304 304 304 305 306 306 307 308 308 308 309 309 310 310 311 312 313 313 314 314 315 315 316 316 316 316 317 317 317 317 317 318 318 319 319 319 320 320 320 320 320 320 321 323 324 326 327 327 327 327 326 326 327 327 327 328 328 329 329 329 329 331 334 333 331 330 330 329 326 322 319 315 311
281 283 286 289 293 295 297 299 300 302 302 303 303 303 303 304 304 305 306 306 306 307 307 308 309 309 310 312 312 313 313 314 314 315 316 316 316 316 317 317 317 317 317 317 317 318 319 319 319 320 320 320 320 320 321 322 324 325 327 328 327 327 327 326 327 327 328 328 329 331 332 332 332 332 333 336 335 333 332 332 331 329 326 321 318 314
283 285 288 291 294 296 298 299 300 301 301 302 302 302 303 303 304 305 306 306 307 307 308 309 310 310 311 312 313 312 313 314 315 315 315 316 316 316 317 317 316 316 316 317 318 318 319 319 319 320 320 320 320 320 322 323 325 326 328 328 327 327 327 327 327 328 329 331 332 334 335 335 335 335 335 337 337 335 334 334 333 331 329 325 320 316
284 287 290 293 295 297 298 298 299 299 300 301 302 302 303 303 304 305 306 306 307 308 308 309 310 311 311 312 312 312 313 314 314 314 315 315 316 316 316 316 315 316 316 317 318 318 319 319 319 320 320 319 320 321 323 324 325 327 328 328 327 327 327 328 328 329 331 334 335 336 337 338 338 338 338 339 340 338 336 337 335 333 331 328 324 318
286 289 291 294 295 296 297 298 298 299 300 301 302 302 303 304 304 305 306 307 307 308 309 309 310 311 311 311 312 313 313 313 313 314 314 315 316 316 315 315 315 316 317 317 318 318 318 319 320 320 320 319 320 322 324 325 326 327 328 327 328 328 328 328 329 331 335 337 338 338 339 340 341 341 340 341 342 340 338 338 337 335 334 331 327 322
286 289 291 293 294 295 296 297 298 300 301 301 301 302 303 304 305 306 307 308 308 309 310 310 311 311 311 311 312 312 312 312 313 314 315 315 315 315 315 315 316 316 317 318 317 318 318 319 320 320 319 320 321 323 324 325 326 327 327 327 328 328 328 329 331 334 337 339 340 341 342 343 343 343 343 343 344 342 339 338 338 337 336 335 331 326
287 289 291 292 294 296 297 298 299 300 301 301 302 303 304 305 306 307 308 308 309 310 311 311 311 311 312 311 311 311 311 312 313 314 315 315 315 315 315 315 316 317 318 318 317 318 318 319 320 320 320 321 322 324 325 326 326 327 327 328 328 328 329 331 333 336 339 341 342 344 344 345 346 345 344 344 345 344 341 339 339 339 338 338 335 331
288 290 292 294 295 296 298 299 300 301 301 302 303 304 305 306 307 307 308 309 310 310 311 311 311 311 310 310 310 310 311 312 313 314 315 315 315 315 315 316 317 318 318 318 317 318 319 320 320 320 321 322 323 324 325 326 326 327 327 328 329 329 331 333 335 338 340 343 344 346 346 347 348 347 346 345 346 346 343 341 340 340 340 340 338 335
289 291 293 294 296 297 298 300 301 302 302 303 304 305 306 306 307 308 308 309 310 310 310 310 310 309 309 309 309 310 311 312 314 315 315 316 316 315 316 317 318 319 318 318 318 319 320 320 320 321 322 322 323 325 325 326 326 327 328 328 329 330 332 334 336 339 341 344 346 347 348 348 349 348 347 346 346 347 345 343 341 341 341 342 341 338
290 292 293 295 297 298 299 300 301 302 302 303 305 306 306 307 307 308 308 309 310 310 309 309 309 309 308 309 310 311 312 314 315 315 316 316 316 316 316 318 319 319 318 318 319 320 320 321 321 322 322 322 323 324 325 326 326 327 328 329 330 332 334 335 337 340 342 345 346 348 348 349 349 349 348 347 347 348 347 345 343 343 342 342 342 340
291 292 294 296 298 299 300 300 301 302 303 304 305 306 306 306 307 307 307 308 309 309 309 309 309 309 309 311 312 313 314 315 316 316 316 316 316 316 317 318 319 319 318 319 319 320 321 321 322 322 322 322 323 324 325 325 326 327 329 330 331 333 335 336 338 341 343 345 347 348 348 349 349 350 349 348 347 348 349 347 345 344 343 343 343 341
293 294 296 297 298 299 300 300 301 302 303 305 305 306 306 306 306 306 306 307 307 309 310 310 310 310 311 313 314 314 316 316 316 316 316 316 316 316 317 318 319 318 318 319 320 320 321 322 322 322 322 322 323 324 325 326 327 328 330 331 332 334 335 337 339 341 343 345 346 347 348 349 349 350 350 349 348 348 349 349 347 345 344 343 343 342
295 296 297 298 298 299 300 301 302 303 304 305 305 306 307 307 306 307 307 307 308 310 312 312 313 312 312 314 315 316 317 317 316 316 316 315 316 316 318 318 318 318 318 319 320 321 322 322 321 321 322 323 323 324 325 326 328 329 330 332 333 334 336 338 339 341 343 345 346 347 348 349 349 350 350 350 349 349 349 350 349 346 344 344 344 343
296 297 298 298 299 300 301 301 302 303 304 305 306 307 307 307 307 307 308 309 310 312 313 314 314 312 312 315 316 316 317 316 316 315 315 315 316 317 318 318 317 317 319 320 320 321 322 321 321 322 322 323 323 324 325 327 329 330 331 332 333 335 336 338 339 341 343 344 345 347 347 348 349 350 350 351 350 349 349 350 350 348 345 344 344 343
296 298 298 298 299 300 301 302 303 304 305 306 306 306 306 307 307 308 309 310 310 312 314 314 314 312 312 315 316 315 316 315 314 315 314 315 317 318 318 317 316 318 319 320 320 321 321 321 321 322 322 323 323 325 326 328 330 331 331 332 333 335 336 338 339 341 342 344 345 346 347 348 348 349 350 351 351 350 349 349 350 349 347 345 344 344
296 298 298 298 299 301 302 303 304 305 306 306 306 306 306 307 307 308 310 311 310 312 313 314 316 313 311 315 315 314 316 315 314 315 316 316 317 318 318 316 317 319 320 320 320 321 321 321 322 322 323 323 324 325 327 329 330 331 331 332 333 335 336 338 339 340 342 343 344 345 346 347 348 348 349 350 351 350 349 349 350 350 348 346 344 344
296 298 299 300 300 302 303 304 305 305 306 306 306 306 307 307 308 309 310 311 310 312 313 315 318 314 311 315 316 314 316 316 315 317 317 317 317 318 317 316 317 319 320 320 320 321 321 321 322 323 323 324 325 326 328 329 330 331 331 332 333 335 336 337 338 340 341 342 343 344 345 346 347 348 348 349 350 351 349 348 349 350 349 347 345 344
297 298 300 300 301 302 303 304 305 305 306 306 306 307 307 308 309 310 311 312 311 313 314 317 322 316 312 316 316 315 318 317 317 319 318 317 317 318 318 317 318 319 320 321 321 321 321 322 323 323 324 325 326 327 329 330 330 330 331 332 333 334 335 336 338 339 340 341 342 343 344 345 346 346 347 349 350 351 350 348 348 349 350 348 345 344
298 299 300 300 301 302 303 303 304 305 305 306 307 307 307 308 309 310 312 313 313 314 314 318 324 317 313 317 316 316 320 319 318 320 318 317 317 318 319 318 318 320 321 321 321 321 322 322 323 324 324 325 326 328 329 329 329 330 330 331 332 333 334 335 337 338 339 340 341 342 343 344 345 345 346 348 349 350 350 349 348 348 349 349 346 344
298 299 300 300 301 302 303 303 304 305 306 307 307 307 308 309 309 310 313 314 314 315 315 319 324 318 315 316 315 317 321 320 319 320 317 317 318 319 320 319 319 320 321 322 321 322 322 322 323 324 325 326 327 328 328 328 328 329 330 331 331 332 333 334 335 337 338 339 340 341 341 342 343 344 345 346 347 349 350 349 347 347 348 349 347 344
298 299 299 300 301 302 302 303 304 305 307 308 308 307 308 309 309 311 314 315 315 316 315 318 321 318 316 315 315 319 322 320 320 319 317 318 319 320 321 319 319 321 321 322 322 322 322 322 323 324 325 326 327 327 327 327 328 328 329 330 330 331 332 333 334 335 336 337 338 339 340 341 342 343 344 345 346 347 349 349 347 346 346 348 347 345
298 298 299 299 301 303 303 304 305 307 308 308 308 308 308 308 310 312 315 316 316 316 315 316 318 318 316 314 316 321 322 320 320 318 317 319 319 321 321 320 320 320 321 321 322 322 322 323 323 325 326 326 326 326 326 326 327 327 328 329 329 329 330 331 333 334 335 336 337 338 339 339 340 342 343 344 345 346 348 349 348 345 345 346 347 345
298 299 299 300 301 302 303 304 306 307 308 308 308 307 308 308 311 313 315 316 315 315 315 314 315 319 316 314 317 321 320 320 320 318 318 319 320 321 322 321 320 320 321 321 322 322 322 323 324 325 326 326 325 325 325 325 326 326 327 327 327 328 329 330 331 333 334 335 335 336 337 338 339 340 341 342 343 345 346 348 348 345 344 344 346 345
299 300 301 302 303 303 303 304 305 307 308 308 308 307 307 309 312 314 315 315 314 314 314 313 315 320 317 314 318 320 320 321 320 317 318 319 320 321 322 321 320 320 321 321 321 322 322 323 324 324 325 324 324 323 323 324 325 325 326 326 326 327 328 329 330 331 332 333 334 335 335 336 337 338 340 341 342 343 344 346 347 346 343 343 344 345
301 301 302 303 305 305 305 306 307 309 310 309 308 307 307 310 313 315 315 315 313 313 315 314 317 321 318 315 318 319 319 321 320 317 317 318 319 320 321 321 320 320 320 320 321 321 322 323 323 324 323 322 322 322 322 323 324 324 324 324 325 326 327 328 329 330 331 332 332 333 334 335 336 337 338 339 340 342 343 344 346 346 343 341 342 343
302 302 303 305 307 307 307 308 310 311 311 309 308 307 308 311 314 316 316 315 313 314 317 319 320 320 318 319 322 321 320 322 320 318 317 317 318 319 320 321 320 319 320 320 320 321 322 323 323 322 321 320 320 321 321 322 323 323 323 323 324 325 326 327 328 329 330 330 331 331 332 333 334 335 336 337 339 340 341 343 344 345 343 340 340 342
303 304 305 307 309 308 307 309 310 311 311 309 307 307 309 313 316 317 316 315 314 317 321 323 322 321 321 323 325 322 321 322 321 318 316 316 317 319 320 320 319 319 319 320 321 321 322 321 320 319 319 319 320 320 321 321 321 321 322 322 323 324 325 326 327 327 328 329 329 330 330 331 332 333 334 336 337 338 340 341 343 344 343 340 339 340
305 308 308 310 312 310 308 309 310 310 310 309 307 308 312 316 317 317 316 315 316 320 323 323 323 323 323 324 324 322 321 321 320 318 316 316 318 319 320 319 319 319 320 320 320 320 319 319 318 318 318 318 319 319 320 320 320 320 321 321 322 323 324 325 325 326 326 327 328 328 329 330 330 331 332 334 335 336 338 339 341 343 343 340 337 338
309 311 311 312 313 310 308 309 310 310 310 308 308 311 315 317 318 317 317 317 319 323 324 323 324 324 323 323 323 322 321 321 320 318 316 316 318 319 319 319 319 319 319 319 318 318 317 317 317 318 317 317 318 318 318 319 319 319 320 321 322 322 323 324 324 324 325 325 326 326 327 328 329 330 331 332 334 335 336 338 339 341 342 339 336 336
310 312 311 312 313 311 308 308 309 309 308 308 310 314 316 318 319 319 320 320 321 324 324 322 323 323 322 321 322 322 322 322 321 319 316 317 319 319 319 319 318 318 318 317 316 316 317 317 317 317 316 316 317 317 317 318 318 319 319 320 321 321 321 322 322 323 323 323 324 324 325 326 327 328 329 330 332 333 334 336 337 339 340 339 335 334
310 311 311 311 312 309 306 306 308 308 308 309 314 317 319 320 322 323 322 320 320 322 322 321 322 322 321 321 322 322 323 322 321 319 316 317 319 319 318 318 317 317 316 316 316 316 316 316 316 316 316 316 316 316 316 317 317 318 318 319 319 320 320 320 321 321 321 322 322 323 323 324 325 326 327 329 330 331 332 334 336 337 339 338 334 332
310 310 310 309 309 309 307 308 310 310 310 313 318 321 322 322 323 324 322 319 319 322 321 321 323 323 322 322 322 323 323 322 321 318 315 316 318 317 317 317 316 316 316 315 315 315 315 315 315 315 315 315 315 315 316 316 317 317 317 318 318 318 318 319 319 319 320 320 321 321 322 323 323 324 326 327 328 329 330 332 334 336 337 337 334 331
309 309 310 310 312 313 313 313 314 313 313 318 323 323 323 323 323 324 322 319 320 322 322 323 324 323 322 322 322 322 322 321 320 316 314 315 316 316 316 316 315 315 315 314 314 314 314 314 314 314 314 314 314 315 315 316 316 316 316 316 317 317 317 317 318 318 318 319 319 320 320 321 322 323 324 325 326 327 328 330 331 334 335 335 333 330
311 312 314 316 318 319 319 318 318 317 317 321 324 323 323 324 324 325 324 321 320 321 322 323 323 322 321 321 320 319 320 320 319 316 314 315 315 315 315 315 315 315 314 314 314 313 313 314 314 314 314 314 314 314 314 315 315 315 315 315 315 316 316 316 316 317 317 317 318 318 318 319 320 321 322 323 324 325 326 328 330 332 334 334 332 328
317 319 320 322 323 323 323 321 321 321 320 322 323 323 324 324 323 324 324 321 319 320 321 322 321 319 319 318 318 318 318 319 318 315 313 314 314 314 314 314 314 313 313 313 313 313 313 313 313 313 313 313 313 313 314 314 314 314 314 314 314 315 314 314 315 315 315 315 316 316 317 317 318 319 320 321 322 323 324 326 328 330 332 332 330 327
325 325 325 325 324 324 324 323 322 322 321 321 323 323 323 323 323 323 324 321 318 318 319 319 318 318 318 318 318 317 317 317 317 315 313 313 313 313 313 312 312 312 312 312 312 313 313 313 313 313 313 313 313 313 313 313 313 313 313 313 313 313 312 312 313 313 313 313 314 314 315 315 316 317 318 319 320 321 323 324 326 328 330 330 329 326
329 328 327 326 325 325 324 323 323 322 321 321 323 323 323 323 322 321 322 319 317 317 318 318 318 317 317 318 317 317 316 317 317 316 315 314 313 312 312 312 312 312 312 313 313 313 313 313 313 313 313 312 312 312 312 312 312 312 311 311 311 311 310 310 311 311 311 311 312 312 313 313 314 315 316 317 318 319 321 323 325 327 328 328 327 325
329 328 327 327 326 325 324 324 324 323 322 322 323 322 322 321 320 319 320 319 318 317 318 318 318 317 317 318 318 318 317 317 317 317 316 315 315 314 314 314 314 314 313 313 313 313 313 313 313 312 312 311 311 311 310 310 310 310 309 309 309 309 308 309 310 309 309 310 310 311 311 312 313 314 315 316 317 318 319 321 323 324 326 326 325 323
329 328 327 326 325 324 323 323 324 322 320 320 320 320 320 320 320 320 320 320 319 319 318 318 318 318 318 318 318 318 318 317 317 317 317 317 316 316 315 315 314 314 314 313 313 313 312 312 312 312 311 311 310 310 309 309 309 309 308 309 309 308 307 309 310 309 309 309 310 310 311 311 312 313 313 314 315 316 318 320 321 322 323 324 323 322
329 328 326 325 324 323 321 322 322 320 318 319 320 320 320 321 321 321 321 320 320 320 320 319 319 319 319 318 318 318 317 317 316 317 317 317 316 316 316 315 314 314 313 313 313 312 312 312 312 311 311 310 309 309 309 309 309 309 309 309 309 307 308 310 310 309 309 309 309 309 310 310 311 311 312 312 313 314 316 317 319 320 321 321 320 319
330 328 326 324 323 322 321 322 322 321 319 320 321 322 322 322 322 322 322 322 321 321 321 320 320 319 319 318 318 318 318 317 317 317 317 317 316 316 315 315 314 314 313 313 312 312 312 312 311 311 310 309 309 309 309 309 310 310 310 310 308 308 309 311 310 309 308 308 308 308 309 309 309 309 310 310 310 311 313 315 316 316 317 318 318 317
328 327 326 325 324 324 323 324 325 324 322 322 323 324 324 323 323 323 323 323 322 321 321 320 320 320 319 319 319 319 318 318 317 317 317 317 316 316 315 314 314 313 313 312 312 312 311 311 311 310 310 309 309 309 309 310 310 310 309 308 307 308 309 309 309 308 307 306 307 307 307 307 307 307 307 307 308 309 310 312 312 313 314 314 314 314
328 328 327 327 326 325 324 325 326 325 323 323 324 325 325 324 324 324 323 322 322 321 321 321 321 320 320 319 319 319 318 318 317 317 317 316 316 315 314 313 313 312 312 312 312 311 311 311 311 311 310 310 309 309 309 309 308 308 307 306 306 306 307 307 307 306 305 305 305 306 305 305 305 305 305 305 305 306 307 308 308 309 309 310 311 310
328 328 328 327 326 326 325 326 327 327 324 324 324 325 324 324 324 323 322 322 322 322 321 321 320 320 319 319 318 318 318 318 317 316 316 315 315 314 313 312 312 312 312 312 312 312 312 311 311 310 309 309 309 309 308 308 307 306 306 305 305 305 306 306 306 304 303 303 304 304 303 303 303 303 302 302 302 303 303 303 304 304 305 306 306 306
328 328 328 328 327 327 327 327 327 326 324 323 324 324 324 323 323 322 322 321 321 321 320 320 319 319 319 319 318 318 317 317 316 315 315 314 314 313 312 312 312 313 313 312 312 312 311 311 310 310 309 309 309 309 308 308 307 307 306 306 306 306 307 307 306 304 302 301 302 302 301 301 301 301 300 300 300 300 299 299 299 299 300 301 302 302
328 328 328 329 328 327 327 326 326 326 324 323 323 324 323 323 322 321 320 320 320 319 319 319 319 319 318 318 318 317 316 316 316 315 315 315 314 314 313 313 313 313 313 312 312 312 311 311 311 310 310 310 310 310 309 309 308 308 308 307 308 308 308 308 306 304 302 301 300 300 300 300 299 298 298 298 298 297 296 295 295 295 295 296 297 297
329 329 329 329 328 327 326 325 325 325 324 322 322 322 321 321 321 320 320 319 319 319 319 318 318 318 318 318 317 317 316 316 316 316 315 315 315 314 313 313 313 314 313 313 312 312 312 312 312 312 312 313 313 313 312 311 310 309 309 309 309 309 309 308 307 305 303 302 301 300 300 299 298 297 297 298 297 295 294 293 291 290 291 291 292 293
329 329 328 328 327 326 325 324 324 323 323 322 321 321 321 321 321 320 320 319 318 318 318 318 318 318 318 317 317 316 316 316 316 315 315 315 315 314 314 314 314 314 314 313 313 314 314 315 315 315 315 315 315 314 313 312 312 312 311 310 309 309 309 308 307 305 303 303 302 302 301 299 297 297 297 297 295 294 292 290 288 287 286 287 287 288
328 328 327 326 326 325 324 324 323 323 323 323 323 322 322 321 320 320 319 319 319 319 319 319 319 318 317 317 316 316 316 316 315 315 315 315 315 315 315 315 315 315 315 315 316 316 317 317 316 316 316 316 316 315 314 313 313 313 312 311 310 310 309 308 306 304 303 303 303 303 302 300 298 298 297 295 293 291 290 288 286 284 282 282 282 283
Height
10688 10686 10685 10683 10682 10680 10679 10677 10675 10673 10670 10668 10665 10662 10659 10655 10652 10650 10646 10643 10639 10635 10631 10627 10623 10620 10617 10613 10608 10604 10599 10595 10589 10584 10579 10573 10568 10563 10558 10552 10546 10541 10535 10529 10524 10519 10513 10507 10502 10497 10491 10486 10480 10474 10468 10462 10455 10448 10440 10432 10424 10415 10407 10399 10390 10380 10370 10358 10345 10332 10319 10306 10293 10280 10266 10250 10237 10228 10219 10209 10197 10185 10173 10165 10158 10152
10685 10684 10682 10680 10679 10677 10675 10673 10671 10669 10666 10663 10661 10657 10655 10652 10648 10645 10642 10639 10636 10632 10627 10623 10617 10614 10612 10608 10603 10598 10593 10588 10583 10578 10572 10566 10561 10556 10551 10546 10540 10534 10527 10522 10517 10512 10506 10500 10495 10490 10484 10479 10473 10467 10461 10455 10448 10440 10432 10424 10416 10408 10399 10391 10382 10373 10362 10350 10337 10324 10311 10298 10285 10273 10260 10244 10227 10215 10207 10198 10188 10176 10165 10155 10148 10142
10682 10681 10679 10677 10676 10674 10672 10669 10667 10665 10662 10659 10657 10654 10651 10648 10644 10641 10638 10635 10633 10629 10625 10620 10614 10608 10606 10603 10597 10592 10587 10582 10577 10571 10566 10560 10555 10550 10544 10539 10533 10527 10521 10515 10510 10505 10499 10493 10488 10483 10477 10472 10466 10460 10454 10447 10440 10433 10425 10416 10408 10400 10392 10383 10374 10365 10354 10342 10329 10316 10303 10289 10276 10264 10252 10238 10221 10206 10195 10187 10178 10168 10157 10148 10139 10133
10679 10677 10676 10674 10672 10670 10668 10666 10663 10661 10659 10656 10653 10650 10647 10644 10641 10637 10633 10630 10628 10626 10623 10619 10612 10603 10600 10597 10590 10585 10581 10576 10571 10565 10560 10555 10549 10543 10538 10532 10526 10520 10514 10508 10502 10498 10492 10487 10481 10476 10470 10464 10459 10453 10446 10439 10432 10425 10417 10409 10401 10393 10385 10376 10366 10356 10346 10334 10321 10309 10295 10280 10266 10254 10242 10229 10215 10201 10188 10177 10168 10160 10150 10140 10132 10125
10676 10674 10672 10671 10669 10667 10665 10662 10660 10658 10655 10653 10650 10647 10644 10640 10638 10634 10630 10625 10622 10619 10616 10615 10611 10599 10592 10591 10585 10579 10575 10570 10565 10559 10554 10549 10543 10537 10531 10525 10519 10513 10508 10502 10496 10490 10485 10480 10474 10468 10463 10457 10451 10445 10439 10432 10424 10417 10409 10402 10394 10386 10377 10368 10358 10348 10338 10326 10313 10300 10287 10272 10257 10243 10230 10219 10206 10194 10183 10171 10161 10152 10143 10134 10125 10117
10672 10671 10669 10667 10665 10663 10661 10659 10657 10655 10652 10650 10646 10643 10640 10637 10633 10630 10626 10622 10617 10614 10609 10607 10607 10599 10588 10585 10581 10573 10569 10564 10559 10554 10548 10543 10538 10531 10525 10519 10512 10507 10501 10495 10489 10483 10478 10472 10467 10461 10455 10450 10444 10438 10431 10424 10417 10410 10402 10394 10387 10378 10369 10360 10350 10340 10329 10317 10305 10292 10278 10265 10250 10235 10221 10208 10196 10185 10175 10166 10155 10145 10137 10128 10119 10111
10669 10668 10666 10664 10662 10660 10658 10656 10653 10651 10649 10646 10643 10640 10636 10632 10629 10625 10621 10617 10612 10609 10605 10600 10599 10596 10585 10579 10575 10568 10562 10558 10553 10549 10543 10538 10531 10525 10519 10512 10506 10500 10495 10488 10482 10476 10470 10465 10459 10454 10448 10443 10437 10431 10424 10417 10410 10402 10395 10387 10379 10370 10361 10352 10341 10331 10320 10308 10296 10283 10270 10257 10243 10229 10215 10201 10188 10176 10166 10158 10150 10140 10130 10121 10113 10105
10666 10664 10662 10660 10659 10656 10654 10652 10649 10647 10644 10642 10639 10636 10632 10628 10624 10620 10616 10612 10607 10603 10599 10594 10590 10590 10581 10573 10569 10562 10556 10551 10546 10542 10537 10531 10525 10518 10511 10505 10499 10493 10488 10481 10475 10469 10463 10457 10452 10446 10441 10435 10430 10424 10417 10410 10403 10396 10388 10380 10371 10363 10353 10343 10333 10322 10311 10299 10287 10274 10261 10249 10235 10222 10209 10195 10182 10170 10158 10150 10143 10135 10125 10116 10108 10100
10663 10661 10659 10657 10655 10653 10650 10648 10645 10643 10640 10637 10634 10631 10627 10623 10619 10615 10611 10606 10601 10596 10593 10587 10582 10582 10576 10567 10563 10557 10550 10545 10540 10534 10530 10524 10518 10511 10504 10498 10492 10486 10480 10474 10467 10462 10456 10450 10445 10440 10434 10428 10422 10417 10410 10403 10396 10389 10381 10373 10364 10355 10345 10334 10324 10312 10301 10289 10277 10265 10253 10240 10228 10215 10203 10190 10178 10165 10153 10143 10135 10128 10120 10111 10102 10095
10660 10658 10656 10654 10651 10649 10646 10644 10641 10638 10635 10632 10629 10626 10622 10619 10614 10610 10606 10601 10596 10590 10586 10581 10575 10573 10570 10562 10556 10551 10545 10540 10535 10528 10522 10517 10510 10503 10497 10491 10485 10479 10473 10466 10460 10454 10449 10444 10438 10433 10427 10421 10416 10410 10404 10397 10389 10382 10374 10365 10356 10347 10337 10326 10315 10304 10293 10281 10269 10258 10247 10234 10222 10209 10197 10185 10173 10161 10149 10137 10128 10120 10113 10105 10097 10090
10656 10654 10652 10650 10648 10645 10643 10640 10637 10634 10631 10627 10624 10621 10617 10613 10609 10605 10601 10596 10592 10585 10579 10575 10568 10563 10562 10558 10551 10545 10539 10534 10529 10523 10515 10509 10502 10495 10489 10484 10478 10472 10465 10458 10453 10447 10442 10437 10431 10426 10420 10414 10409 10403 10397 10390 10383 10375 10367 10358 10348 10339 10329 10318 10307 10297 10285 10274 10262 10251 10240 10229 10217 10205 10193 10180 10168 10156 10145 10133 10123 10114 10107 10100 10092 10085
10653 10651 10649 10646 10644 10642 10639 10636 10633 10629 10626 10623 10620 10616 10612 10608 10605 10600 10596 10592 10587 10581 10573 10568 10563 10555 10552 10551 10545 10539 10534 10528 10523 10517 10510 10502 10495 10487 10482 10477 10471 10465 10458 10451 10445 10440 10435 10430 10425 10419 10414 10408 10403 10397 10391 10384 10376 10368 10359 10350 10340 10330 10321 10311 10300 10289 10278 10266 10255 10245 10234 10224 10213 10202 10190 10177 10164 10152 10140 10129 10118 10109 10101 10094 10088 10081
10649 10647 10645 10642 10640 10637 10635 10632 10629 10625 10621 10618 10614 10611 10607 10604 10600 10596 10592 10588 10583 10577 10568 10562 10556 10549 10544 10542 10537 10532 10527 10521 10515 10509 10502 10495 10487 10480 10474 10470 10465 10457 10451 10444 10439 10434 10429 10424 10419 10413 10408 10402 10396 10391 10384 10376 10368 10360 10351 10342 10332 10323 10313 10303 10292 10281 10270 10259 10248 10238 10228 10219 10208 10197 10186 10173 10160 10147 10136 10124 10114 10105 10097 10089 10083 10077
10645 10642 10640 10638 10635 10633 10630 10627 10624 10620 10616 10613 10608 10605 10601 10597 10594 10591 10587 10583 10579 10574 10564 10556 10549 10542 10538 10535 10530 10525 10520 10514 10507 10500 10493 10487 10480 10473 10467 10463 10457 10450 10444 10439 10433 10429 10424 10418 10413 10407 10402 10396 10390 10384 10376 10369 10360 10351 10343 10334 10325 10316 10306 10296 10286 10274 10263 10253 10243 10232 10223 10214 10203 10192 10181 10169 10156 10143 10132 10121 10110 10101 10093 10085 10078 10072
10641 10638 10635 10633 10631 10628 10625 10622 10619 10615 10611 10607 10602 10599 10595 10589 10585 10582 10579 10575 10573 10571 10562 10551 10542 10533 10531 10530 10523 10519 10514 10506 10500 10493 10485 10479 10473 10467 10461 10455 10450 10444 10438 10433 10428 10423 10418 10413 10407 10401 10396 10390 10383 10377 10369 10361 10352 10343 10335 10326 10317 10308 10299 10289 10279 10268 10257 10247 10237 10227 10217 10208 10198 10187 10176 10164 10152 10140 10128 10117 10107 10097 10088 10081 10074 10067
10637 10634 10630 10628 10626 10623 10620 10616 10613 10610 10606 10602 10597 10592 10588 10583 10578 10574 10570 10565 10562 10563 10558 10550 10539 10525 10522 10524 10517 10511 10508 10499 10492 10486 10478 10472 10467 10461 10455 10448 10443 10437 10433 10428 10423 10418 10413 10407 10402 10396 10389 10383 10376 10369 10361 10353 10344 10336 10327 10319 10310 10301 10291 10281 10272 10261 10251 10241 10231 10222 10212 10202 10192 10182 10172 10161 10149 10137 10125 10114 10103 10094 10084 10076 10069 10062
10634 10630 10626 10623 10621 10618 10615 10611 10607 10603 10600 10596 10590 10586 10582 10578 10572 10567 10564 10558 10553 10554 10552 10547 10538 10520 10513 10519 10512 10504 10502 10493 10486 10481 10473 10467 10462 10456 10449 10442 10436 10432 10427 10423 10418 10413 10408 10402 10396 10390 10383 10376 10369 10362 10354 10345 10337 10328 10320 10311 10302 10293 10284 10274 10265 10255 10245 10234 10225 10215 10206 10196 10186 10177 10167 10157 10146 10134 10122 10111 10100 10090 10080 10072 10064 10057
10629 10627 10621 10618 10616 10613 10609 10605 10601 10597 10593 10589 10583 10578 10574 10571 10567 10561 10557 10552 10545 10545 10545 10542 10537 10516 10504 10513 10508 10498 10496 10487 10479 10474 10467 10461 10455 10450 10443 10435 10430 10426 10421 10417 10412 10408 10403 10396 10391 10384 10376 10369 10361 10354 10346 10337 10329 10320 10312 10304 10294 10285 10276 10267 10258 10248 10239 10228 10218 10208 10199 10189 10181 10172 10162 10153 10142 10131 10119 10108 10098 10087 10077 10068 10059 10052
10624 10623 10617 10612 10609 10607 10603 10598 10595 10590 10586 10582 10576 10571 10566 10562 10560 10555 10550 10544 10536 10536 10535 10537 10535 10511 10493 10502 10500 10491 10489 10481 10473 10468 10460 10454 10448 10442 10437 10429 10423 10420 10416 10411 10406 10402 10397 10391 10384 10377 10369 10362 10353 10346 10338 10330 10322 10313 10305 10296 10286 10277 10268 10259 10250 10241 10232 10223 10213 10203 10193 10184 10175 10166 10158 10148 10138 10128 10116 10105 10095 10085 10075 10066 10057 10049
10619 10618 10614 10607 10603 10601 10597 10592 10589 10584 10580 10575 10569 10563 10558 10554 10551 10548 10544 10537 10527 10524 10521 10526 10532 10508 10485 10490 10489 10482 10482 10474 10467 10463 10454 10447 10441 10435 10431 10424 10418 10414 10409 10405 10400 10395 10390 10384 10378 10371 10362 10354 10346 10338 10330 10322 10314 10306 10297 10288 10278 10269 10260 10251 10243 10233 10224 10216 10207 10198 10189 10179 10171 10161 10153 10144 10134 10124 10113 10102 10092 10083 10073 10064 10055 10047
10614 10612 10609 10603 10597 10595 10591 10586 10582 10578 10573 10569 10562 10555 10550 10546 10543 10540 10539 10531 10521 10516 10509 10513 10523 10504 10480 10481 10478 10473 10474 10466 10459 10456 10448 10440 10435 10429 10424 10418 10413 10408 10403 10399 10393 10388 10383 10376 10370 10363 10354 10346 10338 10330 10322 10314 10306 10298 10289 10280 10270 10261 10253 10244 10235 10226 10216 10208 10200 10191 10183 10174 10166 10157 10148 10139 10129 10120 10110 10100 10089 10080 10071 10063 10054 10045
10609 10607 10604 10599 10593 10589 10585 10580 10576 10572 10567 10562 10556 10548 10542 10538 10534 10531 10532 10527 10518 10511 10501 10502 10512 10499 10476 10472 10469 10466 10466 10457 10450 10447 10441 10434 10428 10423 10419 10412 10406 10402 10397 10392 10387 10380 10375 10368 10361 10355 10347 10338 10330 10322 10314 10306 10299 10290 10281 10272 10262 10253 10245 10237 10228 10219 10210 10201 10193 10185 10177 10168 10160 10151 10143 10134 10125 10116 10107 10097 10087 10077 10069 10061 10052 10044
10603 10601 10598 10594 10588 10583 10578 10574 10570 10566 10561 10556 10548 10540 10534 10530 10525 10522 10522 10520 10514 10507 10497 10495 10503 10495 10475 10465 10462 10460 10458 10449 10442 10437 10432 10428 10423 10418 10414 10407 10400 10396 10391 10386 10380 10372 10366 10359 10352 10345 10338 10330 10321 10313 10306 10298 10290 10282 10273 10264 10255 10246 10238 10230 10221 10212 10203 10195 10186 10178 10170 10162 10155 10146 10138 10129 10121 10113 10104 10095 10084 10074 10066 10058 10050 10042
10598 10595 10592 10589 10585 10578 10571 10566 10563 10560 10555 10549 10541 10533 10527 10522 10519 10516 10514 10511 10506 10501 10492 10486 10491 10491 10475 10460 10455 10454 10450 10443 10434 10428 10425 10422 10418 10413 10409 10402 10395 10390 10384 10379 10372 10365 10357 10349 10342 10336 10328 10320 10313 10305 10298 10290 10282 10274 10265 10257 10248 10239 10231 10223 10214 10206 10197 10188 10180 10172 10164 10157 10149 10141 10133 10125 10117 10109 10101 10092 10082 10072 10063 10055 10048 10040
10593 10589 10585 10583 10582 10576 10569 10561 10557 10554 10550 10543 10534 10526 10520 10515 10512 10511 10508 10503 10498 10494 10488 10478 10479 10484 10472 10455 10450 10448 10442 10437 10428 10420 10416 10414 10410 10407 10403 10396 10389 10383 10377 10371 10364 10357 10349 10341 10333 10326 10319 10311 10304 10297 10289 10282 10274 10266 10257 10249 10241 10233 10224 10216 10207 10198 10190 10181 10173 10166 10158 10151 10144 10136 10128 10120 10113 10105 10097 10089 10080 10069 10059 10051 10044 10038
10588 10583 10577 10575 10573 10570 10565 10559 10554 10551 10546 10538 10529 10520 10514 10510 10508 10504 10501 10496 10489 10487 10484 10472 10469 10477 10469 10452 10446 10441 10433 10430 10422 10413 10408 10404 10401 10399 10396 10390 10382 10375 10369 10363 10356 10349 10341 10333 10325 10317 10310 10303 10295 10288 10281 10273 10266 10257 10250 10242 10234 10226 10217 10208 10199 10191 10183 10175 10167 10160 10152 10145 10138 10131 10123 10116 10108 10101 10093 10085 10077 10067 10057 10048 10041 10034
10583 10578 10571 10568 10565 10560 10555 10551 10548 10545 10541 10532 10522 10513 10508 10506 10504 10499 10494 10489 10481 10478 10479 10469 10460 10465 10463 10451 10445 10439 10431 10426 10419 10410 10404 10398 10393 10391 10388 10383 10375 10367 10360 10353 10347 10340 10332 10324 10316 10308 10301 10294 10288 10280 10272 10265 10257 10249 10241 10234 10226 10218 10209 10200 10191 10183 10175 10168 10160 10153 10146 10139 10132 10125 10118 10111 10103 10096 10089 10081 10073 10064 10054 10044 10037 10030
10578 10574 10567 10563 10560 10553 10546 10542 10539 10536 10533 10525 10515 10506 10502 10500 10499 10494 10487 10481 10474 10470 10471 10466 10456 10452 10451 10446 10440 10434 10428 10424 10417 10407 10399 10394 10388 10384 10380 10375 10366 10358 10351 10344 10337 10331 10323 10315 10307 10300 10293 10286 10280 10272 10263 10256 10248 10240 10233 10225 10217 10209 10200 10191 10182 10174 10167 10160 10153 10146 10139 10133 10126 10119 10112 10106 10098 10091 10084 10076 10069 10061 10051 10041 10033 10026
10572 10570 10564 10560 10556 10546 10537 10535 10532 10528 10524 10517 10506 10498 10497 10495 10492 10488 10481 10473 10468 10464 10461 10459 10453 10444 10439 10438 10434 10426 10420 10417 10412 10402 10393 10386 10382 10377 10372 10366 10358 10349 10342 10335 10328 10321 10314 10307 10300 10292 10285 10277 10270 10262 10254 10246 10238 10231 10223 10215 10207 10200 10191 10183 10174 10166 10159 10152 10146 10139 10132 10126 10120 10113 10106 10100 10092 10085 10078 10071 10064 10057 10048 10038 10029 10022
10565 10564 10559 10556 10554 10543 10530 10526 10525 10520 10516 10509 10498 10491 10491 10490 10484 10480 10474 10466 10461 10460 10455 10451 10448 10440 10431 10429 10427 10420 10413 10408 10403 10394 10384 10377 10372 10368 10363 10356 10347 10340 10333 10325 10318 10311 10305 10299 10292 10284 10276 10267 10259 10252 10244 10236 10228 10220 10213 10205 10196 10189 10181 10174 10166 10158 10151 10144 10138 10132 10125 10119 10113 10106 10100 10093 10086 10079 10073 10066 10059 10052 10044 10035 10026 10019
10558 10557 10553 10550 10550 10540 10526 10520 10517 10512 10507 10501 10494 10489 10486 10483 10478 10472 10466 10460 10455 10455 10451 10445 10443 10438 10429 10423 10418 10413 10406 10400 10395 10386 10376 10369 10364 10358 10353 10347 10338 10330 10324 10316 10309 10303 10296 10290 10282 10274 10265 10256 10248 10241 10233 10225 10218 10209 10202 10194 10186 10178 10171 10165 10158 10151 10143 10136 10130 10124 10118 10111 10105 10099 10093 10086 10080 10073 10067 10060 10054 10047 10039 10031 10022 10015
10551 10550 10546 10543 10543 10536 10523 10517 10512 10506 10499 10493 10491 10488 10483 10478 10473 10467 10460 10453 10449 10449 10446 10440 10437 10433 10427 10420 10415 10408 10400 10393 10386 10376 10366 10362 10359 10351 10342 10335 10328 10321 10314 10307 10300 10293 10285 10278 10271 10263 10253 10245 10237 10229 10221 10214 10206 10198 10190 10183 10175 10168 10161 10155 10149 10143 10136 10129 10122 10116 10110 10104 10097 10091 10085 10079 10073 10067 10061 10055 10048 10042 10035 10026 10018 10011
10545 10543 10539 10536 10535 10530 10519 10513 10509 10502 10494 10489 10487 10485 10480 10474 10469 10463 10455 10447 10444 10443 10440 10435 10431 10426 10420 10415 10410 10405 10397 10387 10378 10366 10354 10350 10351 10346 10336 10325 10317 10311 10304 10296 10289 10281 10273 10266 10259 10251 10242 10233 10225 10217 10210 10203 10195 10186 10179 10172 10165 10158 10152 10145 10139 10133 10127 10121 10114 10108 10101 10095 10089 10083 10077 10071 10066 10060 10054 10049 10043 10036 10030 10022 10014 10006
10540 10536 10533 10529 10527 10523 10515 10508 10504 10497 10489 10487 10486 10481 10476 10471 10466 10461 10452 10441 10438 10438 10433 10427 10423 10417 10411 10406 10401 10398 10393 10384 10373 10359 10344 10337 10334 10331 10328 10321 10309 10301 10294 10285 10278 10270 10261 10254 10247 10238 10229 10221 10213 10205 10198 10191 10183 10175 10168 10161 10155 10148 10142 10135 10129 10123 10117 10112 10105 10099 10093 10087 10081 10075 10069 10064 10058 10053 10048 10042 10037 10031 10025 10017 10009 10002
10534 10530 10526 10522 10519 10516 10510 10504 10500 10492 10483 10482 10482 10477 10472 10468 10463 10458 10448 10434 10429 10430 10425 10420 10415 10408 10403 10398 10391 10388 10385 10379 10369 10352 10336 10330 10325 10315 10312 10309 10301 10292 10284 10275 10268 10260 10251 10242 10234 10226 10217 10208 10200 10193 10186 10180 10173 10164 10157 10150 10144 10138 10131 10125 10119 10113 10107 10101 10096 10089 10083 10078 10072 10066 10061 10056 10051 10046 10041 10035 10030 10025 10019 10012 10004 9997
10528 10523 10520 10516 10512 10510 10506 10500 10495 10489 10482 10478 10477 10472 10467 10463 10457 10453 10446 10429 10419 10418 10416 10413 10408 10401 10396 10391 10384 10379 10376 10374 10367 10348 10328 10321 10316 10307 10299 10295 10289 10282 10273 10263 10255 10248 10239 10231 10223 10214 10206 10196 10188 10180 10174 10169 10162 10153 10146 10139 10132 10126 10119 10113 10108 10102 10095 10090 10085 10079 10073 10068 10063 10057 10052 10047 10043 10038 10033 10028 10023 10019 10013 10007 9999 9992
10522 10518 10514 10511 10508 10505 10502 10497 10491 10485 10478 10474 10472 10467 10462 10457 10451 10448 10445 10431 10417 10411 10409 10406 10402 10395 10389 10384 10376 10370 10365 10365 10363 10348 10328 10317 10309 10299 10291 10283 10275 10268 10260 10252 10243 10235 10227 10219 10210 10202 10193 10184 10175 10166 10160 10156 10149 10141 10133 10126 10120 10114 10106 10100 10096 10091 10084 10079 10074 10069 10064 10058 10053 10048 10043 10038 10034 10030 10026 10021 10016 10012 10007 10001 9994 9987
10518 10514 10510 10507 10504 10501 10498 10494 10489 10483 10475 10470 10468 10463 10457 10453 10446 10441 10439 10430 10417 10408 10403 10399 10394 10387 10381 10375 10368 10360 10354 10354 10356 10347 10331 10319 10308 10296 10286 10278 10268 10258 10248 10239 10230 10223 10215 10206 10197 10189 10179 10169 10161 10152 10145 10141 10134 10128 10120 10112 10107 10102 10094 10088 10085 10080 10073 10068 10063 10058 10054 10048 10043 10039 10034 10030 10025 10021 10018 10013 10009 10005 10000 9995 9989 9982
10514 10511 10506 10503 10499 10495 10492 10487 10482 10478 10472 10466 10462 10458 10452 10447 10441 10435 10432 10425 10413 10402 10395 10390 10383 10376 10370 10364 10357 10350 10341 10336 10339 10337 10325 10314 10305 10292 10278 10269 10260 10249 10238 10227 10216 10207 10200 10191 10183 10174 10164 10155 10146 10137 10131 10125 10119 10114 10107 10099 10095 10090 10082 10078 10075 10068 10062 10058 10052 10047 10043 10038 10033 10029 10025 10021 10017 10013 10010 10006 10001 9998 9993 9988 9983 9977
10511 10507 10503 10498 10493 10489 10485 10480 10474 10468 10463 10458 10454 10450 10445 10439 10433 10427 10423 10419 10410 10399 10388 10381 10374 10367 10361 10355 10346 10339 10328 10315 10311 10311 10306 10296 10288 10278 10264 10251 10241 10231 10222 10213 10203 10193 10184 10177 10168 10159 10150 10140 10131 10123 10115 10108 10104 10100 10093 10086 10083 10076 10068 10067 10064 10056 10050 10047 10041 10036 10032 10027 10023 10019 10015 10012 10008 10003 10001 9998 9993 9990 9986 9981 9977 9972
10509 10504 10499 10494 10489 10483 10478 10474 10470 10462 10455 10450 10446 10441 10436 10432 10426 10418 10411 10405 10400 10394 10384 10374 10365 10356 10350 10343 10334 10325 10316 10303 10291 10285 10279 10271 10262 10255 10245 10234 10223 10213 10203 10193 10184 10175 10168 10161 10153 10143 10134 10124 10114 10107 10099 10092 10089 10085 10078 10073 10068 10059 10053 10055 10052 10042 10036 10033 10028 10024 10020 10016 10012 10008 10005 10002 9998 9994 9992 9989 9985 9982 9978 9974 9970 9965
10507 10502 10496 10491 10485 10480 10473 10469 10466 10459 10451 10445 10440 10433 10426 10421 10416 10410 10403 10393 10384 10380 10374 10364 10353 10342 10335 10330 10322 10311 10301 10291 10279 10268 10260 10251 10241 10232 10224 10214 10204 10196 10187 10177 10167 10158 10150 10144 10136 10127 10118 10108 10099 10091 10083 10076 10073 10069 10063 10059 10052 10042 10039 10042 10037 10028 10022 10019 10015 10011 10008 10003 10000 9997 9994 9991 9988 9985 9983 9980 9976 9973 9970 9967 9963 9959
10503 10499 10493 10487 10482 10476 10469 10464 10460 10454 10446 10439 10434 10428 10419 10411 10405 10399 10394 10386 10373 10362 10357 10351 10341 10329 10318 10312 10307 10298 10286 10274 10264 10255 10246 10237 10226 10214 10204 10194 10183 10174 10166 10158 10150 10141 10134 10128 10121 10112 10103 10094 10085 10076 10068 10061 10058 10053 10048 10043 10034 10026 10025 10027 10022 10015 10009 10004 10001 9999 9995 9991 9988 9985 9983 9980 9978 9975 9973 9971 9967 9964 9962 9959 9955 9951
10498 10493 10488 10482 10476 10470 10463 10457 10451 10444 10435 10427 10423 10417 10408 10399 10391 10383 10377 10372 10364 10352 10342 10336 10328 10317 10303 10291 10284 10278 10269 10257 10247 10240 10231 10222 10211 10199 10188 10177 10167 10156 10147 10139 10132 10126 10119 10113 10106 10098 10089 10080 10070 10063 10056 10049 10044 10039 10033 10027 10018 10013 10012 10012 10008 10002 9996 9990 9988 9986 9983 9979 9976 9974 9971 9969 9967 9965 9963 9961 9958 9955 9953 9951 9948 9944
10492 10487 10481 10474 10467 10461 10454 10449 10443 10435 10424 10415 10409 10404 10397 10388 10379 10369 10361 10354 10347 10337 10325 10315 10308 10301 10290 10277 10267 10261 10253 10241 10230 10222 10214 10205 10194 10182 10170 10161 10151 10141 10132 10124 10117 10110 10103 10096 10089 10081 10073 10065 10056 10050 10045 10038 10031 10025 10019 10012 10006 10002 10000 9999 9995 9990 9982 9976 9975 9973 9970 9967 9964 9962 9960 9957 9955 9954 9953 9951 9949 9945 9943 9942 9940 9936
10485 10480 10474 10468 10461 10455 10446 10438 10433 10425 10413 10404 10397 10390 10383 10375 10366 10356 10347 10338 10329 10320 10310 10298 10289 10282 10274 10263 10252 10243 10236 10225 10214 10206 10199 10190 10179 10168 10156 10147 10138 10129 10119 10109 10101 10094 10088 10081 10073 10065 10058 10051 10043 10037 10032 10026 10018 10011 10005 9999 9994 9991 9988 9986 9983 9977 9969 9964 9962 9960 9958 9955 9952 9951 9948 9946 9944 9943 9942 9941 9939 9936 9934 9932 9931 9928
10479 10473 10468 10462 10454 10448 10440 10432 10425 10417 10405 10396 10392 10385 10375 10366 10355 10343 10332 10324 10316 10309 10300 10289 10276 10265 10256 10246 10235 10225 10218 10209 10198 10188 10182 10174 10164 10152 10141 10131 10123 10115 10105 10095 10085 10078 10072 10065 10059 10051 10044 10037 10031 10025 10019 10012 10004 9997 9991 9985 9981 9978 9975 9973 9969 9963 9957 9952 9949 9948 9945 9943 9941 9939 9937 9935 9933 9932 9931 9930 9928 9926 9924 9923 9921 9920
10473 10466 10461 10455 10445 10437 10432 10426 10420 10412 10399 10384 10377 10373 10365 10357 10350 10338 10324 10313 10303 10295 10288 10279 10267 10254 10243 10233 10222 10210 10201 10194 10183 10172 10164 10156 10145 10133 10122 10113 10105 10098 10090 10081 10072 10063 10056 10049 10043 10037 10030 10024 10018 10012 10006 9999 9991 9985 9978 9972 9968 9964 9961 9958 9954 9950 9944 9940 9937 9936 9934 9931 9929 9927 9926 9924 9922 9921 9920 9919 9918 9916 9914 9913 9911 9910
10465 10458 10452 10447 10439 10430 10423 10416 10411 10407 10398 10382 10369 10363 10356 10349 10343 10335 10322 10309 10298 10287 10278 10271 10261 10247 10232 10219 10206 10193 10182 10174 10165 10154 10145 10137 10127 10116 10106 10098 10091 10083 10074 10066 10058 10050 10042 10034 10028 10021 10014 10009 10003 9996 9989 9983 9977 9971 9965 9959 9955 9951 9947 9944 9940 9936 9931 9927 9925 9924 9923 9920 9917 9915 9915 9914 9912 9910 9909 9908 9907 9905 9904 9903 9902 9900
10455 10448 10442 10437 10432 10424 10416 10409 10402 10399 10396 10386 10373 10361 10350 10339 10331 10322 10312 10300 10290 10279 10267 10257 10248 10238 10224 10210 10194 10179 10168 10159 10150 10138 10129 10122 10112 10101 10092 10084 10076 10068 10059 10051 10043 10036 10029 10021 10012 10004 9998 9994 9988 9980 9972 9965 9961 9957 9951 9945 9941 9938 9935 9931 9927 9923 9918 9915 9914 9913 9911 9909 9906 9904 9904 9903 9901 9899 9898 9897 9896 9895 9894 9894 9893 9891
10444 10438 10432 10426 10421 10414 10406 10398 10390 10382 10377 10370 10360 10348 10337 10326 10317 10308 10298 10286 10274 10262 10249 10236 10226 10216 10208 10199 10187 10172 10159 10150 10139 10127 10118 10110 10100 10089 10080 10071 10061 10052 10044 10036 10028 10021 10015 10008 9999 9991 9985 9980 9974 9966 9958 9951 9947 9944 9938 9932 9928 9925 9922 9919 9915 9911 9906 9903 9902 9902 9900 9898 9895 9894 9893 9892 9890 9889 9888 9887 9887 9885 9884 9884 9883 9882